{"data":{"norad_id":81537,"intl_designator":"","name":"UNKNOWN","alt_names":[],"object_type":"UNKNOWN","status":"UNKNOWN","operator":null,"country":null,"launch_date":null,"launch_site_code":null,"launch_vehicle":null,"mission":null,"orbit_class":"UNKNOWN","rcs_meters":null,"size_class":null,"mass_kg":null,"dimensions":null,"purposes":[],"wikipedia_slug":null,"has_3d_model":false,"image_url":null,"decayed_at":null,"tle_current":{"epoch":"2026-09-18T07:53:26.347488Z","epoch_age_seconds":202326,"freshness":"STALE","line1":"1 81537U          26261.32877717 -.00000066  00000+0 -11538-4 0  9998","line2":"2 81537  71.0368 250.7246 0074653  90.7722 270.1951 14.07251924659795","mean_motion":14.07251924,"eccentricity":0.0074653,"inclination_deg":71.0368,"raan_deg":250.7246,"arg_perigee_deg":90.7722,"mean_anomaly_deg":270.1951,"bstar":-1.1538e-5,"rev_number":65979,"period_min":102.32709406479,"perigee_km":814.69041019743,"apogee_km":922.89139191695,"semimajor_km":7246.9279010572,"source":"CELESTRAK","updated_at":"2026-09-20T09:00:32.390578Z"}}}